Aérodrome :
LOGIN :

S'inscrire | Disclaimer

   EN    FR    IT 

 










Légende :    VFR   VFR Marginal   IFR   IFR Intensif   IFR Très Intensif
Visi : 
Plafond : 
>= 8 km
>= 3000ft
5 à 8 km
1000 à 3000 ft
1500m à 5 km
500 à 1000 ft
800 à 1500m
200 à 500 ft
< 800m
< 200 ft
Symboles :   Orages  Brouillard  Fortes neiges  Fortes précipitations  Vent > 20 kt
SIGMETs :   Divers  Orages  Givrage  Turbulence  Onde Orograph.  Cendres Volcan.







- Altitude de l'aérodrome : 586 ft
- Code IATA : IEV


UKKK - Zhuliany

DERNIER METAR :
  • 210500Z 25003MPS CAVOK 21/16 Q1014 R26/CLRD70 NOSIG

METARs EXPIRÉS :
  • 210430Z 23002MPS CAVOK 20/16 Q1014 R26/CLRD70 NOSIG
  • 210400Z 00000MPS CAVOK 18/16 Q1015 R08/CLRD70 NOSIG
  • 210330Z 00000MPS CAVOK 17/15 Q1014 R08/70D NOSIG
  • 210300Z 00000MPS CAVOK 16/15 Q1014 R08/70D NOSIG
  • 210230Z 00000MPS CAVOK 16/15 Q1014 R08/70D NOSIG

TAF TAF UKKK
Valide du 21 à 00h jusqu'au 22 à 00h UTC


202304Z 2100/2124 24003MPS 9999 SCT030 TX27/2110Z TN17/2103Z
TEMPO 2100/2105 VRB01MPS 1000 BR SCT004
BECMG 2105/2107 29005G10MPS BKN020
TEMPO 2107/2118 VRB11G17MPS 1000 TSRAGR SQ BKN004 BKN015CB
BECMG 2118/2119 34006G11MPS
TEMPO 2119/2124 2000 -SHRA BR BKN005 SCT015CB
Pas de NOTAMs connus pour ce terrain.



MET'MAP, la Météo Aéronautique d'un coup d'oeil ! - Copyright ORBIFLY Décembre 2007 - Disclaimer

ORBIFLY MET'MAP TEAM :

Programmation & Développement : Alexandra Zaïnal
Conception & Développement : Baudouin d'Aumeries
Co-Programmation & Développement : Marc-Olivier Méhu
Soutien technique & logistique : Manuel Goepfert

Contact : metmap@orbifly.com




SOURCES & CREDITS :

   NOAA